Temp
21 22 25 27 28 28 30 28 31 29 29 28 28 29 28 26 26 24 21 19 20 20 21 21 20 20 19 19 19 20 20 20 19 19 19 19 19 19 19 19 18 18 18 18 18 18 17 17 17
22 23 25 28 27 28 30 30 28 30 28 28 27 28 28 24 25 23 22 19 19 20 21 22 21 20 20 20 20 20 20 20 20 19 19 19 19 19 19 19 19 18 18 18 18 17 18 18 18
21 24 27 27 28 30 29 29 29 27 27 28 27 27 27 24 24 23 20 19 20 20 21 21 21 20 20 20 20 19 20 20 20 20 19 19 19 20 19 19 18 19 19 18 17 17 17 17 18
23 26 27 27 28 27 29 30 28 26 27 27 28 25 24 22 23 20 18 19 20 20 21 21 20 20 20 20 20 19 19 20 20 20 20 20 19 19 19 19 19 19 19 18 17 17 17 17 18
24 27 26 27 28 27 29 28 28 28 27 27 27 25 23 22 20 18 18 18 19 19 20 19 20 20 20 20 20 19 20 19 20 20 20 20 19 19 19 19 19 19 19 18 17 17 17 17 17
25 28 27 27 27 26 27 26 28 28 27 26 27 26 23 22 21 18 18 18 18 18 19 19 19 20 20 20 20 20 20 19 19 19 20 20 19 19 19 19 19 19 19 18 17 17 17 17 17
26 26 28 28 26 25 26 26 27 28 27 26 26 26 24 23 21 20 19 19 18 18 19 19 19 19 19 19 20 19 19 19 19 19 19 20 20 19 19 19 19 19 18 18 17 17 17 17 17
26 27 26 28 26 26 25 26 25 27 25 24 25 26 24 22 21 20 21 21 19 19 19 19 19 19 19 19 19 19 19 19 19 19 19 19 19 20 19 19 19 19 18 18 18 18 17 17 17
24 26 27 27 27 25 24 24 23 24 25 24 24 25 23 21 21 21 21 21 21 20 19 19 20 19 19 20 19 19 19 19 19 19 19 19 19 20 19 19 19 18 18 18 18 18 18 17 17
25 27 25 23 24 25 24 25 24 25 24 23 22 22 22 21 22 21 21 21 21 20 20 19 19 19 19 20 20 19 19 19 19 19 19 19 19 19 19 20 19 19 18 18 18 17 17 17 17
22 24 22 21 22 24 23 23 23 25 25 24 23 22 21 21 21 21 20 20 19 19 19 18 18 18 19 19 18 19 20 19 20 19 18 18 19 19 19 19 18 18 18 17 18 17 17 17 19
20 20 22 20 19 22 23 23 22 23 22 22 22 22 21 22 21 20 20 19 18 18 18 17 17 17 17 17 18 19 19 20 19 20 19 19 19 18 18 18 18 18 18 18 19 19 18 19 19
21 20 20 19 19 20 21 21 21 21 21 21 20 20 21 21 20 19 18 18 18 17 17 16 16 16 16 16 17 18 19 19 19 19 19 19 19 19 19 18 17 17 18 18 18 19 19 19 19
21 20 20 20 19 19 21 20 20 21 20 21 20 21 21 20 19 18 19 18 17 16 16 15 15 15 15 15 15 16 17 18 18 18 18 19 18 18 19 19 18 17 18 18 18 18 18 19 19
21 20 20 20 20 19 19 21 21 21 20 21 21 21 20 20 19 19 17 16 16 15 15 15 14 14 14 14 15 15 15 16 16 17 17 18 18 17 18 18 18 19 17 17 17 17 17 17 17
21 22 21 19 20 19 20 23 22 20 20 21 22 23 22 21 20 18 16 15 15 14 14 14 14 13 13 14 14 14 14 15 15 16 16 17 17 17 17 17 17 18 18 18 17 17 17 17 17
20 22 23 19 19 19 20 23 22 20 20 21 22 23 23 22 20 18 15 14 14 14 14 14 13 13 13 13 13 13 13 14 14 15 16 16 16 16 16 16 16 17 17 17 18 18 17 16 16
20 21 23 22 18 19 21 21 22 20 20 21 22 23 22 21 20 18 16 14 14 13 13 13 13 12 12 12 13 13 14 14 14 14 14 15 15 15 15 15 15 16 16 16 17 17 18 17 16
22 22 22 20 17 18 21 22 23 23 21 20 21 22 22 21 20 17 16 15 14 13 13 13 12 12 12 12 12 12 12 12 12 12 12 12 13 13 13 14 15 15 15 16 16 17 17 18 18
21 21 20 18 16 17 21 20 22 23 22 22 21 22 21 21 19 18 17 15 14 13 13 13 12 12 12 11 11 11 11 11 11 11 11 11 11 11 11 12 13 14 15 15 16 16 16 17 17
17 19 18 18 17 17 17 21 23 23 20 19 18 19 20 19 19 19 17 16 14 14 13 13 12 11 11 11 10 11 11 11 11 11 11 11 10 10 10 11 11 12 13 14 15 15 16 16 16
17 14 15 15 15 17 17 19 23 24 21 18 18 17 18 19 18 18 17 16 15 14 12 12 12 11 11 11 10 10 10 10 10 9 9 9 10 9 9 10 10 11 12 13 13 14 14 15 15
13 13 14 14 13 13 17 14 20 22 21 21 20 19 18 19 19 18 17 16 14 13 12 11 11 11 11 10 9 8 8 7 9 9 9 10 10 10 11 11 11 11 11 12 12 12 13 14 14
13 14 13 12 11 14 17 15 17 21 22 20 19 19 19 19 18 18 17 15 14 14 13 11 11 11 10 9 9 8 7 8 8 8 8 10 11 10 11 10 10 10 10 11 11 12 12 12 13
13 14 14 15 14 17 9 11 17 20 19 19 19 18 18 18 18 18 17 17 16 14 13 12 11 11 9 9 8 8 8 8 8 8 9 9 10 11 12 11 10 9 9 9 10 10 11 12 12
12 12 15 16 17 18 10 14 18 19 18 18 17 18 17 17 18 18 17 16 15 14 13 12 11 10 8 8 7 7 7 7 8 9 8 9 11 11 11 11 11 11 10 9 9 9 10 11 12
13 13 14 13 14 14 18 19 20 19 18 17 17 17 17 18 18 18 17 16 15 14 13 11 10 9 8 8 7 7 7 9 8 8 9 10 11 11 11 11 11 11 11 9 9 9 10 10 11
13 14 13 12 14 16 19 17 16 13 16 18 18 18 18 18 18 18 17 16 15 13 12 10 10 9 7 8 7 7 8 8 8 8 9 8 9 10 11 11 11 11 11 10 9 9 10 11 11
12 13 13 14 15 16 17 18 15 10 16 18 18 18 18 17 17 17 16 15 14 12 11 10 10 9 8 7 7 7 8 8 9 8 8 8 8 8 9 10 11 11 11 11 11 11 11 11 12
14 14 15 14 15 15 14 14 19 17 17 16 16 17 17 17 17 16 15 14 13 12 12 11 10 9 9 8 8 8 9 8 8 8 8 7 7 8 8 8 9 10 11 11 11 11 11 12 12
Height
785 787 787 784 795 788 783 789 769 782 784 782 781 780 786 792 800 817 815 815 816 817 818 818 819 820 821 822 822 822 821 821 821 821 822 822 821 821 821 821 822 822 822 822 823 822 822 821 821
787 788 787 780 794 796 784 776 788 777 784 783 785 784 786 807 801 810 814 815 815 816 817 818 819 820 822 823 823 823 823 823 823 823 823 823 822 822 822 822 822 822 822 823 823 823 824 823 822
788 787 784 788 786 781 783 780 777 786 788 785 790 788 792 808 809 811 817 816 816 817 817 818 819 821 823 824 824 824 824 824 824 824 824 823 823 822 823 823 823 823 823 823 823 824 824 824 823
787 786 784 791 788 784 775 773 781 790 789 787 784 801 806 813 812 817 817 817 817 817 818 818 820 822 823 824 825 826 825 825 825 824 824 823 823 823 823 822 823 824 824 824 825 825 824 824 824
785 780 790 791 782 788 775 778 780 785 787 791 790 802 810 816 817 817 817 817 819 818 819 820 821 823 823 824 825 825 825 825 825 825 824 824 824 823 822 823 824 825 825 825 825 826 826 825 825
782 775 789 790 789 789 787 787 782 785 788 795 792 799 812 816 818 820 820 820 820 820 820 821 822 823 824 824 825 825 826 825 825 825 824 824 824 824 824 824 824 824 825 825 825 825 825 825 825
779 782 778 776 792 795 792 788 788 788 791 799 796 801 812 815 820 822 822 822 822 822 822 822 823 824 825 825 825 825 825 825 825 824 824 823 823 823 823 823 823 823 823 823 824 824 824 824 824
775 774 782 776 792 794 793 792 793 790 801 803 802 802 813 817 821 822 823 824 824 824 824 824 824 824 825 825 825 825 824 824 824 824 824 823 823 822 822 822 821 821 821 822 822 823 823 823 823
784 780 782 784 783 794 795 798 801 801 801 805 807 805 812 819 821 823 824 825 826 826 826 827 827 826 826 825 825 824 824 823 823 823 822 822 822 822 822 821 821 821 821 821 821 820 821 821 822
780 776 784 795 789 792 796 795 800 802 804 810 814 816 818 820 822 824 825 825 826 827 828 828 827 827 827 827 826 825 824 823 822 822 822 821 820 820 820 820 819 819 820 819 819 819 819 819 819
791 788 799 805 801 794 803 806 803 799 806 807 813 817 820 822 823 825 826 827 827 827 828 828 828 827 826 826 824 824 823 822 822 820 819 818 818 818 818 817 817 816 815 816 815 815 816 817 817
803 804 798 809 812 805 805 806 809 806 814 814 815 818 820 821 823 825 827 828 828 828 827 827 827 826 825 825 824 823 822 821 820 819 818 817 816 814 813 813 813 813 813 812 812 812 812 812 813
801 806 808 811 812 812 811 813 813 816 817 819 820 821 821 822 824 826 827 827 827 827 827 826 826 825 824 823 823 822 821 819 818 817 816 815 814 813 812 810 809 808 807 808 808 808 808 808 808
801 804 809 812 814 816 812 816 815 816 817 818 819 819 821 822 824 826 826 826 827 827 826 826 825 824 823 822 821 820 818 817 816 815 814 813 812 811 809 808 806 805 804 804 803 803 803 803 803
804 810 810 813 814 819 818 816 815 814 816 815 816 817 820 821 823 823 825 826 826 826 826 825 823 822 822 820 819 818 817 815 814 812 811 810 809 808 807 805 803 802 801 799 799 798 798 798 798
806 804 810 819 815 819 817 810 807 815 815 813 810 810 813 816 818 822 824 825 825 825 824 823 822 820 819 818 817 815 814 813 811 809 808 807 806 805 804 802 801 800 798 796 795 794 794 793 792
811 806 800 819 821 821 817 806 807 814 815 811 808 807 808 812 816 820 822 823 823 823 822 821 820 819 817 816 814 812 811 809 808 806 804 803 802 802 800 798 797 796 794 793 792 791 789 789 788
812 807 803 806 824 821 815 811 807 811 813 811 806 804 806 810 813 817 820 821 821 820 820 819 818 817 816 814 813 811 808 806 805 803 802 800 799 798 797 794 793 791 790 789 788 787 786 784 783
801 804 806 816 829 826 811 807 803 801 806 808 805 803 803 807 811 816 818 819 819 819 818 817 817 816 815 813 811 809 807 805 803 801 799 797 796 794 792 790 788 787 786 785 784 783 781 780 780
807 811 815 827 831 828 812 810 800 795 795 798 800 799 801 805 810 813 815 817 817 817 816 815 815 814 813 812 810 808 806 803 800 797 795 793 791 790 788 786 784 783 781 779 779 778 777 776 777
826 817 825 826 828 829 826 804 789 785 797 799 803 803 800 804 807 809 812 813 814 814 814 814 813 812 811 810 808 805 803 800 797 795 792 790 788 786 784 782 780 779 778 775 775 774 773 771 771
827 841 839 837 839 833 830 821 789 781 792 799 799 803 802 804 807 808 809 810 811 812 813 813 812 811 809 808 805 803 801 798 797 794 791 788 785 783 780 779 777 775 774 772 772 771 769 769 768
847 847 844 846 848 851 829 842 799 786 789 785 789 795 798 799 802 805 806 808 809 810 811 811 810 809 807 805 803 801 799 797 794 792 789 786 783 780 778 776 774 772 771 769 768 767 767 765 764
849 845 846 850 858 844 826 838 807 786 783 788 790 793 796 799 801 803 804 806 807 808 809 808 807 806 804 802 800 798 797 795 792 789 787 783 780 778 775 773 772 770 768 766 765 764 762 761 760
847 843 846 840 842 822 867 854 807 786 791 790 791 794 796 798 800 800 801 802 803 805 805 805 805 803 802 800 798 796 795 792 790 787 784 782 778 774 772 771 769 767 764 762 761 759 757 756 755
852 854 840 836 825 814 857 827 796 787 789 791 794 795 798 799 798 799 799 800 800 801 802 803 802 801 799 797 796 794 792 790 788 785 784 780 776 773 770 767 765 763 761 758 757 755 753 752 751
850 849 849 850 845 843 807 796 785 783 790 793 795 795 796 796 795 795 796 797 798 799 800 800 800 799 796 794 793 792 790 787 786 783 780 776 773 770 767 764 762 760 757 755 753 752 751 750 749
852 847 851 852 842 828 798 805 804 804 794 787 791 793 793 794 794 794 793 794 796 797 798 798 798 796 794 792 792 790 787 786 783 780 777 773 770 767 764 762 760 757 755 753 751 750 748 748 747
855 849 847 842 835 828 815 796 797 812 794 789 788 790 791 793 793 792 792 793 794 794 795 796 795 794 792 791 789 787 785 783 780 777 774 770 768 765 763 761 759 756 754 752 750 748 747 746 744
838 837 835 837 832 832 835 812 785 790 791 793 794 791 791 791 790 790 791 790 790 791 792 792 792 791 791 789 787 785 783 781 778 775 772 770 767 764 762 759 757 755 752 750 748 747 745 744 742
Wind_Speed
6 4 3 5 5 5 10 6 6 10 9 3 3 6 12 14 9 4 5 5 4 1 2 4 6 6 4 3 3 4 5 3 3 3 3 4 3 3 4 4 4 5 6 6 7 8 8 7 7
6 5 4 3 6 8 7 8 10 10 9 8 7 3 5 7 11 8 5 7 5 4 2 3 7 6 5 4 5 1 5 5 2 2 2 0 1 2 3 5 6 6 6 7 7 8 8 5 6
8 6 5 4 7 9 9 10 11 9 5 4 5 9 4 5 7 5 7 7 6 4 3 1 6 6 4 4 3 3 2 4 3 1 1 4 4 5 5 4 6 5 5 7 7 7 5 3 4
10 6 3 6 10 3 5 10 13 10 6 1 7 8 7 7 4 5 7 9 8 7 5 3 6 5 3 2 4 2 4 3 3 2 3 3 3 3 6 8 9 4 3 5 6 7 5 2 3
8 6 7 8 6 4 7 9 13 8 6 7 1 6 7 8 9 9 11 11 10 11 12 9 6 4 2 2 4 4 3 5 3 3 3 3 2 1 2 8 6 4 4 5 6 6 5 3 2
5 6 8 10 9 7 8 6 7 7 7 6 9 10 7 9 8 8 11 13 12 12 11 10 7 5 3 2 3 5 5 5 5 4 4 4 3 2 4 6 5 5 5 5 6 7 7 5 4
11 7 10 11 11 10 10 6 9 8 9 6 2 5 7 10 8 7 9 12 13 14 12 10 7 5 3 1 1 3 5 6 7 7 6 6 6 7 7 9 8 7 6 6 7 8 8 8 7
4 5 5 9 13 9 7 5 4 5 8 4 5 4 8 11 8 6 7 8 9 11 12 10 9 6 3 2 2 4 5 7 8 9 10 9 9 10 11 11 11 10 9 8 8 9 9 10 10
2 5 9 7 14 9 9 7 2 1 8 7 5 10 12 10 7 6 6 6 5 7 8 7 7 7 8 7 6 6 6 7 8 9 11 13 11 11 10 12 13 13 12 11 11 10 10 11 12
3 6 6 8 7 12 9 8 7 6 9 10 10 10 10 8 6 6 4 3 3 6 6 7 7 7 7 6 7 7 7 6 6 7 10 12 12 12 13 11 13 16 15 14 14 14 13 13 11
4 4 9 6 7 8 7 7 2 8 6 5 10 9 7 6 4 3 2 3 5 6 6 8 8 8 8 8 9 7 8 8 8 9 8 10 9 10 12 15 14 14 16 15 16 16 16 14 13
6 5 5 5 3 3 6 3 5 5 7 5 8 5 4 3 1 2 3 5 7 8 8 9 9 9 9 10 9 10 10 10 11 11 11 10 10 11 13 15 14 15 17 17 17 18 20 17 17
13 9 9 8 8 7 3 4 4 7 6 4 4 3 3 2 1 2 4 5 6 7 8 8 9 9 9 10 10 11 12 12 12 12 12 12 13 14 14 15 15 17 17 18 18 20 19 18 18
8 13 11 7 8 6 2 3 2 5 5 5 5 5 4 3 3 5 6 6 6 7 7 8 8 8 9 10 10 11 12 13 13 13 14 14 14 15 16 16 16 19 21 20 20 20 20 20 20
14 11 9 5 3 3 1 4 7 7 5 6 7 7 6 7 6 7 6 6 6 7 8 8 9 9 10 11 11 11 12 13 14 14 15 15 15 16 17 18 19 18 17 23 24 22 23 21 21
4 7 7 4 1 2 3 4 8 7 7 9 8 8 8 8 8 7 5 5 5 7 8 9 9 10 11 11 12 13 13 14 15 16 16 17 17 17 18 18 19 19 20 18 21 25 25 24 25
4 7 9 5 3 2 5 4 6 8 8 10 10 10 8 8 8 6 4 4 5 7 9 9 9 10 11 12 13 14 15 16 17 17 18 19 19 20 20 20 20 19 19 20 20 20 25 23 25
7 6 5 6 3 4 7 11 5 9 11 12 11 11 10 8 8 4 4 4 6 7 8 9 9 10 11 12 12 13 14 15 16 16 17 18 20 20 22 22 22 22 21 20 21 22 21 22 24
6 5 6 4 3 4 9 12 11 10 14 15 14 13 10 8 5 5 4 5 6 7 7 8 9 9 10 11 12 12 13 14 15 15 16 18 20 22 24 24 24 23 23 22 21 21 21 21 20
4 6 4 4 2 4 8 16 15 13 16 16 14 13 11 8 7 6 5 6 6 6 7 8 9 10 10 11 12 12 14 14 15 16 15 16 17 20 22 25 25 24 24 24 23 22 21 21 19
8 3 3 4 4 3 9 12 14 9 6 7 9 10 9 8 6 4 5 6 5 6 8 9 11 11 12 12 13 13 14 16 16 15 15 16 17 20 21 23 23 23 24 22 21 21 21 19 19
3 4 3 4 3 2 3 5 9 7 10 9 9 10 10 9 7 6 7 7 6 7 8 9 10 11 12 13 14 16 17 18 16 18 18 19 17 17 18 20 21 21 22 22 21 20 20 20 18
3 2 3 3 2 3 5 3 6 5 9 12 10 11 10 8 7 6 8 8 8 7 7 8 10 11 12 13 13 13 14 16 17 15 16 16 16 16 16 16 16 17 19 19 19 20 21 20 19
7 1 1 2 2 3 3 3 2 7 5 1 1 7 8 7 6 7 7 7 8 6 7 8 10 12 12 12 10 10 13 15 15 14 15 14 14 16 15 15 17 17 20 21 20 22 23 23 22
1 2 2 2 2 4 2 3 11 6 3 2 3 5 5 6 7 6 6 7 6 6 6 8 10 12 11 10 9 10 13 14 14 13 12 14 16 15 15 15 15 16 18 20 23 24 24 23 21
1 1 1 4 2 4 3 6 3 2 0 4 6 5 5 7 7 6 8 8 8 7 7 8 10 11 10 8 9 11 11 11 11 14 15 19 18 16 16 16 17 18 15 18 18 20 21 21 19
2 2 2 3 1 3 5 5 13 11 10 8 7 6 6 5 6 8 10 10 9 7 6 6 8 9 8 10 11 11 10 12 16 19 17 16 14 14 15 16 16 16 14 16 15 16 17 16 15
3 3 2 2 3 5 4 5 5 3 4 6 10 6 4 1 6 9 11 10 8 6 5 5 7 7 8 8 9 10 11 13 15 14 12 12 13 13 14 14 14 14 13 13 11 14 14 16 15
4 3 5 3 3 3 5 3 4 4 5 4 8 8 5 4 8 10 10 8 7 5 5 6 5 6 7 8 9 11 12 13 12 10 10 11 12 13 12 13 14 13 12 10 10 10 11 10 12
9 8 9 4 4 4 4 7 5 4 3 4 6 7 8 8 10 9 9 8 7 8 7 6 5 6 7 8 9 11 12 11 11 10 10 10 10 11 11 11 11 10 9 9 9 9 9 9 9
Wind_Direction
195 239 247 249 223 246 215 181 164 164 150 57 56 346 79 42 19 54 114 23 356 328 242 197 191 184 166 132 92 55 42 60 106 114 114 117 129 132 143 145 143 121 119 117 116 108 99 97 92
206 201 214 221 252 210 178 141 188 161 91 118 97 108 55 77 55 98 132 360 350 337 293 229 206 189 177 146 124 78 36 41 70 101 94 28 250 203 176 165 166 147 138 132 132 124 116 122 115
188 197 198 208 242 221 153 181 125 109 131 153 112 31 47 83 66 85 31 1 358 349 344 264 201 182 177 181 166 215 313 23 33 289 316 326 320 234 215 194 184 172 161 153 150 139 142 122 116
177 195 229 240 212 49 110 156 142 142 121 91 109 86 94 34 71 53 22 22 32 22 26 104 152 158 168 198 203 255 249 293 355 319 276 331 341 293 263 211 194 202 191 173 168 165 177 168 137
201 192 210 226 167 138 124 127 151 146 114 120 280 102 90 83 85 66 52 47 45 54 70 87 124 138 162 212 220 232 271 249 290 330 292 299 309 319 154 173 190 223 220 196 192 197 211 221 193
168 213 202 196 163 144 136 154 177 142 129 119 108 106 86 121 95 71 68 59 65 73 81 98 109 120 145 177 231 239 252 235 258 285 301 275 267 220 199 194 214 229 235 219 210 214 224 231 231
220 204 207 181 156 163 149 160 172 151 140 82 84 105 119 121 103 93 81 73 68 74 82 83 85 86 92 113 242 248 258 259 263 266 268 274 258 247 225 228 234 241 238 233 227 227 229 238 231
269 249 180 160 169 144 138 136 78 150 74 115 346 136 150 123 114 105 94 88 70 58 63 57 62 65 55 28 297 282 271 265 266 269 269 272 272 255 240 237 241 243 241 242 239 239 238 243 243
270 203 177 170 177 143 154 151 94 18 121 68 52 63 95 123 120 116 111 84 74 56 41 32 24 10 360 348 341 328 312 291 278 274 277 270 261 259 243 248 247 251 249 245 245 243 243 242 244
283 229 98 4 33 145 153 153 126 157 133 111 103 104 118 116 114 107 91 69 35 19 16 13 6 358 346 333 320 315 312 306 299 280 276 268 265 267 258 255 249 255 253 250 250 250 248 242 237
19 73 122 64 37 125 128 128 112 150 135 98 134 128 122 121 104 83 43 11 1 354 356 353 348 340 335 322 313 309 301 297 293 292 290 276 271 261 258 253 250 251 252 243 249 245 242 239 240
111 79 104 110 65 134 121 118 94 37 86 70 89 110 142 152 131 24 348 337 336 334 335 337 335 330 323 315 306 298 295 288 283 280 282 282 278 266 259 254 253 253 247 241 238 238 234 235 236
107 114 95 97 91 71 134 84 91 119 127 142 138 163 179 193 192 305 320 318 323 325 329 335 337 335 327 318 306 297 290 287 285 283 281 278 274 272 270 264 256 254 246 245 247 242 244 239 236
121 119 110 87 85 70 142 117 225 157 170 164 187 193 204 213 256 289 286 299 302 313 317 324 326 327 327 321 314 302 292 286 285 283 281 280 278 276 277 273 270 265 261 253 250 247 242 244 243
131 116 117 74 74 72 357 205 221 139 183 193 207 212 217 234 253 272 286 284 298 303 308 312 315 315 316 312 307 304 295 287 283 280 280 278 277 277 276 275 275 270 269 264 259 256 252 245 241
138 166 161 85 344 98 256 244 161 183 195 215 221 231 228 244 261 272 258 275 290 299 302 308 308 309 308 303 298 293 288 285 282 278 276 274 273 273 274 273 272 271 273 268 271 265 256 253 246
207 189 200 140 52 298 225 244 147 192 215 232 235 243 250 265 258 239 246 268 287 296 303 308 312 312 312 309 302 294 287 283 281 279 276 276 275 274 273 271 270 270 271 269 269 266 266 263 247
179 167 197 188 74 247 241 254 187 211 230 240 246 253 260 259 257 220 245 274 289 297 300 306 310 313 315 314 309 304 299 291 286 284 283 283 282 280 278 273 268 265 264 263 262 264 265 261 263
153 180 178 71 41 305 251 268 268 234 231 248 252 253 253 245 233 224 258 284 287 285 290 300 306 311 316 315 315 313 309 304 298 294 291 287 284 282 280 278 271 267 264 262 263 267 267 266 264
136 142 101 119 38 308 298 284 270 251 242 242 254 258 247 234 220 216 250 276 272 288 299 308 311 313 313 308 305 300 297 295 291 290 289 290 290 288 283 277 275 271 268 266 261 257 259 259 260
55 45 87 5 326 254 305 273 254 228 270 248 246 254 239 231 231 235 279 286 279 288 304 311 316 316 312 307 303 298 294 293 294 292 293 292 293 294 292 284 279 276 274 269 268 263 259 259 252
124 34 48 20 11 280 342 288 272 248 216 217 224 216 222 212 221 250 291 285 276 291 298 305 309 310 310 308 304 301 298 295 289 292 290 293 295 295 289 285 280 275 271 270 269 265 261 264 260
98 86 61 47 62 330 191 253 259 246 258 240 224 217 212 214 230 266 293 278 275 286 297 306 309 312 315 314 311 306 295 292 289 293 294 297 296 295 296 290 288 283 274 267 267 269 269 262 256
130 138 75 100 111 250 133 246 258 249 279 153 218 191 209 215 256 282 282 264 267 275 295 310 316 320 322 319 314 307 298 298 297 300 296 298 307 301 296 295 287 286 276 275 282 273 264 260 259
351 256 324 241 204 278 130 238 256 256 219 234 143 167 209 248 268 274 270 273 284 293 304 314 321 323 325 322 321 318 309 303 298 301 305 304 295 297 306 299 293 290 287 284 277 274 272 259 253
135 173 267 273 282 332 161 238 261 333 343 254 252 244 265 268 259 260 282 294 297 294 303 314 319 321 327 334 333 324 313 304 312 314 292 282 290 302 304 306 305 300 283 284 283 275 274 262 253
139 226 29 303 141 262 244 261 269 244 244 226 221 234 255 258 269 282 292 296 295 286 297 308 316 317 331 338 333 321 311 330 308 291 286 290 294 296 305 308 306 303 292 283 287 274 271 268 263
269 137 168 178 280 270 237 250 252 282 268 231 208 206 197 246 304 299 294 295 282 270 283 303 304 319 323 329 314 313 321 307 299 300 298 303 305 307 307 308 308 307 302 289 283 273 266 264 267
169 210 222 301 255 277 301 261 191 236 245 190 178 192 213 269 314 311 302 290 274 262 272 280 297 306 315 304 304 309 300 296 299 302 308 310 313 320 324 317 313 311 311 305 292 282 275 276 273
257 246 217 244 174 244 304 273 351 297 259 258 255 251 260 277 313 311 298 283 264 261 257 264 275 289 293 296 298 299 297 300 300 302 309 316 321 327 318 323 324 319 317 311 302 289 279 286 292